Location: Fransèches
(46.0192°N, 2.0492°E)
Time: 12:47:16
(UTC+00:00)

Daily predictions for brighter satellites

Satellite Brightness Start Highest point End
(mag) Time Altitude Azimuth Time Altitude Azimuth Time Altitude Azimuth
Cosmos 1954 Rocket 4.2 20:12:33 10° NNW 20:17:49 74° WSW 20:23:01 10° SSE
Cosmos 1544 Rocket 3.6 20:15:30 10° N 20:19:49 65° E 20:24:08 10° SSE
Lacrosse 5 rocket 3.2 20:17:49 10° WNW 20:20:47 21° SW 20:23:52 10° S
Cosmos 1656 3.8 20:16:40 10° NNW 20:22:08 67° ENE 20:27:38 10° SE
GEOS 3 Rocket 3.7 20:18:17 10° SE 20:23:23 76° SW 20:28:32 10° NW
ATLAS 2AS CENTAUR R/B 3.0 20:21:31 10° NW 20:28:31 64° WSW 20:35:03 10° SSE
MetOp-B 4.2 20:25:07 10° SSE 20:30:25 69° ENE 20:35:45 10° N
Cosmos 1850 Rocket 4.3 20:25:59 10° NNW 20:31:06 54° ENE 20:36:09 10° SE
PSLV R/B 4.1 20:28:09 10° NNE 20:32:19 84° WNW 20:36:30 10° SSW
Cosmos 1980 Rocket 3.7 20:28:49 10° N 20:33:30 25° NE 20:38:09 10° ESE
Cosmos 1697 Rocket 3.4 20:28:47 10° NNW 20:34:07 43° NE 20:39:27 10° SE
USA 32 4.0 20:29:27 10° S 20:34:40 79° E 20:39:55 10° N
SL-8 R/B 3.7 20:31:19 10° WNW 20:36:07 88° SSW 20:40:57 10° ESE
TSX-5 4.4 20:33:16 10° SSW 20:37:44 79° ESE 20:43:39 10° NNE
SPOT 1/Viking Rocket 3.8 20:35:40 10° S 20:40:48 72° WSW 20:45:59 10° NNW
COSMOS 2406 4.2 20:37:51 10° SSE 20:42:39 28° ESE 20:47:30 10° NE
Spot 2 Rocket 4.0 20:38:51 10° SE 20:43:40 45° ENE 20:48:32 10° N
X-37B 0.3 20:41:32 10° W 20:44:19 65° S 20:47:01 11° ESE
Cosmos 1025 Rocket 4.3 20:40:23 10° SSW 20:44:28 44° WNW 20:48:37 10° N
SPOT 5 3.0 20:49:45 12° SE 20:53:37 50° ENE 20:57:48 10° N
Cosmos 1703 3.3 20:51:51 10° S 20:55:38 60° E 20:59:26 10° NNE
Cosmos 2084 Rocket 4.2 20:52:54 10° NNW 20:56:35 39° NE 21:00:03 12° ESE
RESURS DK-1 2.4 20:53:41 10° NNW 20:57:50 87° WSW 21:01:19 14° SSE
Cosmos 1452 Rocket 3.5 20:53:07 10° SSW 20:58:23 89° WNW 21:03:40 10° NNE
Cosmos 1833 Rocket 2.7 20:53:03 10° S 20:58:35 62° ESE 21:04:08 10° NNE
Terra 2.5 20:56:28 13° SE 21:00:20 42° ENE 21:04:49 10° N
CZ-4B R/B 2.6 20:59:43 10° N 21:02:25 37° WNW 21:05:07 10° SW
Cosmos 1110 Rocket 4.0 20:59:11 10° S 21:04:23 67° ESE 21:09:40 10° NNE
Helios 1A Rocket 3.1 21:01:06 15° SSE 21:04:23 58° ENE 21:08:26 10° N
ERS-1 Rocket 3.1 21:02:33 14° SSE 21:06:50 62° ENE 21:11:49 10° N
Resurs 01 Rocket 3.3 21:03:30 10° SSW 21:07:26 31° W 21:11:25 10° NNW
Cosmos 2228 2.9 21:07:39 10° N 21:11:54 76° E 21:15:15 16° SSE
Cosmos 2184 Rocket 4.1 21:09:42 10° N 21:15:54 83° W 21:21:54 11° S
Cosmos 1408 4.0 21:16:14 17° ESE 21:17:17 20° E 21:19:52 10° NE
Lacrosse 5 3.7 21:14:17 10° WNW 21:18:02 21° WSW 21:21:45 10° S
Cosmos 968 Rocket 4.0 21:17:58 10° NNW 21:23:01 48° ENE 21:26:36 19° SE
Cosmos 1900 4.4 21:17:57 10° NW 21:23:08 86° WSW 21:26:45 20° SSE
Cosmos 1328 3.9 21:22:05 18° SSE 21:24:53 56° E 21:28:49 10° NNE
USA 276 3.5 21:24:21 10° WNW 21:27:12 36° N 21:30:03 10° ENE
Cosmos 2360 4.3 21:25:56 10° NNW 21:31:41 77° WSW 21:35:50 19° SSE
Cosmos 2082 Rocket 2.5 21:27:22 12° S 21:32:24 49° ESE 21:37:53 10° NE
Cosmos 1867 4.0 21:27:11 10° NNW 21:32:35 55° NE 21:36:30 18° ESE
USA 245 4.5 21:30:03 11° SSW 21:33:46 36° W 21:36:58 10° NNW
USA 267 3.8 21:32:02 10° ENE 21:37:55 34° SE 21:43:45 10° SSW
ARIANE 5 R/B 2.7 21:35:43 23° SSE 21:38:28 71° ENE 21:42:53 10° N
Cosmos 1606 Rocket 3.5 21:36:16 10° N 21:40:37 83° W 21:43:24 22° S
GP-B 3.9 21:37:33 10° NNE 21:41:39 36° E 21:43:34 24° SE
Cosmos 2341 Rocket 4.3 21:36:46 10° N 21:43:00 57° ENE 21:47:01 22° SSE
Meteor 1-21 Rocket 4.4 21:37:31 10° SSW 21:43:05 74° WNW 21:48:50 10° N
Cosmos 192 4.2 21:43:00 12° SSW 21:47:36 81° ESE 21:52:32 10° NNE
Okean 1-7 Rocket 4.3 21:58:40 28° SE 22:00:11 37° E 22:04:19 10° NNE
SAR-Lupe-1 4.2 21:59:09 10° NNE 22:02:40 55° E 22:03:39 39° SSE
Cosmos 1726 Rocket 3.8 21:59:03 10° NNW 22:03:19 61° W 22:05:41 25° SSW
Cosmos 1892 2.6 22:02:06 37° SSE 22:03:25 64° E 22:07:10 10° NNE
Cosmos 2181 Rocket 4.1 22:07:22 26° SSE 22:10:52 61° E 22:17:01 10° NNE
Cosmos 1633 4.1 22:12:10 20° E 22:12:10 20° E 22:14:47 10° NE
USA 234 4.0 22:06:21 10° E 22:12:37 50° NNE 22:18:53 10° NW
Cosmos 1992 Rocket 4.1 22:15:18 30° S 22:17:47 59° ESE 22:22:56 10° NNE
SL-16 R/B 3.1 22:12:36 10° NNW 22:17:56 40° NE 22:21:23 20° ESE
Cosmos 1697 Rocket 3.9 22:13:01 10° NW 22:17:57 32° WSW 22:21:16 18° SSW
Cosmos 1980 Rocket 2.4 22:12:20 10° NNW 22:17:59 64° WSW 22:20:52 29° S
Cosmos 1486 Rocket 4.2 22:13:25 10° NNW 22:18:37 63° ENE 22:21:05 31° SE
Cosmos 1932 4.4 22:13:39 12° SSW 22:19:31 75° ESE 22:25:51 10° NE
X-37B 2.5 22:17:12 10° W 22:18:13 17° WSW 22:18:13 17° WSW
Cosmos 2369 4.1 22:15:59 10° NW 22:21:34 53° WSW 22:24:30 27° S
COSMOS 2406 4.1 22:21:06 10° SW 22:26:41 50° WNW 22:32:18 10° NNE
Cosmos-2242 4.1 22:26:09 10° N 22:29:59 32° ENE 22:31:12 27° ESE
ATLAS 5 CENTAUR R/B 1.0 22:29:22 44° SSW 22:30:27 72° SE 22:34:33 10° NE
Cosmos 1602 Rocket 4.0 22:32:11 38° SE 22:33:08 45° E 22:37:16 10° NNE
In-Cosmos 22 Rocket 4.1 22:30:23 28° S 22:33:27 89° W 22:38:55 10° N
Cosmos 1869 3.2 22:30:19 10° N 22:34:13 81° E 22:35:09 51° SSE
ERS-2 4.5 22:36:37 10° ENE 22:37:40 12° E 22:37:40 12° E
Terra 3.6 22:35:21 14° SW 22:38:14 24° W 22:42:05 10° NW
Meteor 1-27 4.2 22:34:30 10° NNW 22:40:05 82° W 22:42:35 34° S
ALOS 2 3.5 22:39:48 29° ESE 22:41:17 38° ENE 22:45:22 10° N
FALCON 9 DEB 2.9 22:38:43 10° WNW 22:42:00 78° NNE 22:42:17 69° E
ASTEX 1 3.9 22:38:09 10° N 22:43:04 56° W 22:45:50 25° SSW
Cosmos 1354 Rocket 4.4 22:41:37 10° NNW 22:46:51 55° ENE 22:49:06 32° SE
BREEZE-M DEB (TANK) 3.9 22:44:52 10° WNW 22:47:58 66° NNE 22:59:16 10° E
SL-8 Rocket 4.4 22:43:37 10° NNW 22:49:42 57° W 22:53:01 27° SSW
ADEOS Rocket 3.8 22:45:43 26° SE 22:49:59 60° ENE 22:57:35 10° N
Cosmos 1825 2.4 22:49:40 44° SW 22:50:37 61° WNW 22:54:20 10° N
Cosmos 2058 Rocket 4.3 22:46:45 10° NNW 22:50:45 34° W 22:52:35 24° SW
Cosmos 1408 4.4 22:50:12 17° WSW 22:51:49 24° WNW 22:54:42 10° NNW
Cosmos 2322 Rocket 2.7 22:47:57 10° NNW 22:53:31 53° ENE 22:56:24 27° ESE
Cosmos 1626 Rocket 3.7 22:54:44 39° SSW 22:56:12 67° W 23:00:33 10° N
Cosmos 1503 Rocket 4.0 22:51:20 10° NNW 22:56:40 80° ENE 22:58:35 40° SSE
USA 276 2.4 23:00:11 10° WNW 23:02:50 61° NW 23:02:50 61° NW
Cosmos 2278 4.3 22:58:47 10° NW 23:04:14 47° WSW 23:06:17 33° SSW
Cosmos 2333 Rocket 3.7 23:03:28 10° N 23:08:34 31° NE 23:12:52 13° ESE
Cosmos 1825 Rocket 3.9 23:08:17 43° ESE 23:08:55 46° E 23:13:04 10° NNE
Gbstr 26 Del rocket 3.7 23:11:08 38° ESE 23:11:08 38° ESE 23:15:05 10° ENE
SJ 16-02 1.4 23:06:49 10° NNW 23:11:15 69° ENE 23:12:19 49° SE
Cosmos 1340 Rocket 3.8 23:13:04 31° E 23:13:10 32° E 23:16:43 10° NNE
Meteor 2-20 4.4 23:13:53 36° S 23:16:34 88° W 23:22:42 10° N
Cosmos 2082 Rocket 3.9 23:11:41 10° WSW 23:16:43 31° NW 23:21:45 10° N
H-2A R/B 3.4 23:15:57 10° NNE 23:20:10 85° ESE 23:20:55 59° S
USA 267 3.3 23:14:44 10° NE 23:21:18 79° NNW 23:27:50 10° WSW
Cosmos 2058 2.9 23:26:08 60° SE 23:26:40 67° E 23:30:51 10° NNE
Cosmos 2221 3.7 23:23:09 10° N 23:27:08 33° ENE 23:28:17 28° ESE
Cosmos 1606 2.5 23:24:05 10° N 23:27:58 82° W 23:28:16 73° SSW
Spot 4 4.4 23:27:39 38° SW 23:28:53 47° W 23:33:31 10° NNW
Cosmos 2360 Rocket 2.4 23:23:47 10° NNW 23:29:27 64° ENE 23:32:00 33° SE
Cosmos 1934 Rocket 4.1 23:24:30 10° N 23:30:34 65° E 23:33:06 36° SSE
Cosmos 1833 4.4 23:39:57 42° SSE 23:41:22 54° ESE 23:46:49 10° NE
Cosmos 44 3.4 23:41:21 47° SE 23:41:35 48° ESE 23:45:54 10° NE
Meteor 2-2 Rocket 4.3 23:36:15 10° N 23:42:19 88° E 23:44:36 41° SSE
Meteor 2-20 Rocket 4.5 23:42:26 37° SSW 23:45:00 75° W 23:51:08 10° N
Cosmos 2237 4.2 23:39:25 10° NNW 23:45:07 67° WSW 23:46:53 44° S
Cosmos 1633 4.2 23:45:56 23° W 23:46:31 24° WNW 23:49:25 10° NNW
Cosmos 1339 Rocket 4.5 23:50:04 40° S 23:52:25 74° E 23:58:33 10° NNE
